This is the latest recevied weather packets stored in our database for station/object IZ1UQG-N2. If no packets are shown the sender has not sent any weather packets the latest 10 day(s).
| Time | Temp. | Humidity | Pressure | Rain* | Wind** | Luminosity | Snow |
|---|---|---|---|---|---|---|---|
| 1788002926 | 27.78° C | 44% | 1011.7 hPa | 76.96 mm | - | 772 W/m² | - |
| 1788002866 | 27.78° C | 44% | 1011.7 hPa | 76.96 mm | - | 772 W/m² | - |
| 1788002806 | 27.78° C | 44% | 1011.7 hPa | 76.96 mm | - | 772 W/m² | - |
| 1788002745 | 27.78° C | 43% | 1011.7 hPa | 76.96 mm | - | 772 W/m² | - |
| 1788002684 | 27.78° C | 43% | 1011.7 hPa | 76.96 mm | - | 772 W/m² | - |
| 1788002625 | 27.78° C | 43% | 1011.7 hPa | 76.96 mm | - | 772 W/m² | - |
| 1788002565 | 27.78° C | 43% | 1011.6 hPa | 76.96 mm | - | 772 W/m² | - |
| 1788002505 | 27.78° C | 42% | 1011.7 hPa | 76.71 mm | - | 772 W/m² | - |
| 1788002444 | 27.78° C | 42% | 1011.7 hPa | 76.71 mm | - | 772 W/m² | - |
| 1788002385 | 27.78° C | 44% | 1011.6 hPa | 51.31 mm | - | 772 W/m² | - |
| 1788002325 | 27.78° C | 43% | 1011.8 hPa | 51.05 mm | - | 772 W/m² | - |
| 1788002265 | 27.78° C | 43% | 1011.8 hPa | 51.05 mm | - | 772 W/m² | - |
| 1788002204 | 27.78° C | 43% | 1011.6 hPa | 51.05 mm | - | 786 W/m² | - |
| 1788002144 | 27.78° C | 43% | 1011.7 hPa | 51.05 mm | - | 786 W/m² | - |
| 1788002086 | 27.78° C | 43% | 1011.6 hPa | 51.05 mm | - | 786 W/m² | - |
| 1788002024 | 27.78° C | 47% | 1011.7 hPa | 51.05 mm | - | 786 W/m² | - |
| 1788001966 | 27.78° C | 47% | 1011.7 hPa | 51.05 mm | - | 786 W/m² | - |
| 1788001906 | 27.78° C | 47% | 1011.6 hPa | 25.65 mm | - | 786 W/m² | - |
| 1788001845 | 27.78° C | 43% | 1011.7 hPa | 25.4 mm | - | 786 W/m² | - |
| 1788001785 | 27.78° C | 43% | 1011.7 hPa | 25.4 mm | - | 777 W/m² | - |
| 1788001725 | 27.78° C | 45% | 1011.8 hPa | 0 mm | - | 703 W/m² | - |
| 1788001666 | 27.78° C | 45% | 1011.8 hPa | 0 mm | - | 703 W/m² | - |
| 1788001606 | 27.78° C | 46% | 1011.8 hPa | 0 mm | - | 703 W/m² | - |
| 1788001546 | 27.78° C | 46% | 1011.8 hPa | 0 mm | - | 703 W/m² | - |
| 1788001484 | 27.78° C | 45% | 1011.8 hPa | 0 mm | - | 703 W/m² | - |
* Rain latest hour (hover to see other rain measurements)
** Current wind speed in m/s (hover to see current wind gust speed)